Theta_e
360 364 368 367 367 366 364 363 361 362 362 363 363 363 362 362 363 363 363 363 362 361 360 360 361 361 359 357 354 354 356 355 353 350 349 350 352 354 356 360 357 350 353
362 364 367 366 366 366 365 363 362 362 362 362 362 362 361 361 362 362 361 362 363 362 361 361 361 359 356 353 351 350 350 351 350 349 348 348 350 353 354 356 357 355 355
361 363 366 366 366 366 365 363 362 361 362 362 362 362 361 361 361 362 362 363 363 361 360 359 358 356 354 351 349 348 348 349 349 347 348 344 343 354 355 356 356 357 357
360 361 364 366 366 365 363 362 361 362 362 361 361 361 361 361 362 362 363 363 362 360 359 358 356 353 351 349 347 347 346 346 347 347 341 339 339 356 359 360 359 359 357
357 360 364 366 365 365 362 361 361 361 361 361 361 361 361 361 361 361 362 362 361 360 359 357 355 353 351 348 346 347 346 346 345 344 334 333 331 355 362 361 360 359 358
357 360 365 365 365 364 362 361 361 361 361 361 362 361 361 361 360 361 361 361 361 359 358 356 354 353 350 347 347 346 345 347 345 333 330 332 331 354 362 361 361 358 353
356 359 362 365 365 364 362 361 361 361 361 361 361 361 360 360 360 360 360 361 361 358 357 355 352 351 349 347 346 346 347 346 338 333 330 330 329 351 361 361 359 351 350
357 358 361 365 364 363 363 361 361 361 360 361 361 360 360 360 360 360 359 360 360 359 356 354 352 349 347 346 347 349 349 346 339 334 332 334 348 357 361 356 351 354 355
358 358 360 361 363 364 362 361 360 360 360 359 359 359 360 360 360 360 359 359 359 358 357 355 351 348 347 348 349 349 349 346 338 338 337 342 353 355 356 358 356 356 354
355 357 356 359 360 359 359 362 360 360 360 359 359 359 359 359 359 359 357 358 359 358 358 355 351 350 349 349 349 349 349 348 340 338 339 351 358 359 356 353 351 349 349
353 351 354 355 355 356 357 359 360 360 360 359 359 359 356 354 354 356 357 358 359 358 357 354 352 351 350 350 351 351 350 341 338 336 346 358 357 353 351 348 347 346 346
349 349 350 352 353 355 358 357 356 356 356 356 356 355 353 351 352 355 355 358 359 358 357 354 353 352 351 341 339 344 340 340 334 348 351 356 354 350 347 344 343 344 343
349 350 347 347 349 351 352 355 354 353 352 351 354 353 348 348 349 350 347 352 352 356 348 350 347 345 341 339 337 335 335 337 341 344 351 354 352 348 345 343 345 343 341
347 349 350 346 345 342 351 352 351 350 349 348 353 351 347 342 341 340 342 344 346 345 344 340 339 339 338 337 335 334 335 335 340 342 348 352 350 346 343 345 343 341 338
333 347 349 348 345 346 348 348 348 348 349 350 350 350 348 343 339 339 342 343 344 342 340 338 336 336 335 336 337 336 340 340 340 341 340 350 348 346 343 342 341 339 334
311 344 349 350 350 350 346 345 344 345 346 346 346 348 348 343 340 338 341 341 341 341 340 339 333 334 336 336 337 341 342 341 338 336 336 341 346 345 343 340 338 336 333
308 326 343 348 348 347 345 342 342 343 343 342 342 344 346 341 339 338 340 342 342 341 337 336 336 335 336 338 341 341 343 342 340 336 334 334 337 344 343 341 336 334 333
307 313 333 349 347 346 346 346 344 345 343 342 341 341 344 341 338 339 340 342 344 338 337 338 339 337 336 337 339 342 340 341 338 335 332 331 329 332 340 341 336 334 332
306 310 314 342 344 345 345 346 347 348 350 344 342 342 343 342 340 342 340 339 338 335 335 336 336 335 336 337 338 340 341 337 338 333 330 329 327 328 330 338 338 335 331
308 310 315 329 341 342 343 342 343 344 342 347 347 349 345 342 341 344 340 340 338 334 336 334 335 338 338 337 337 334 337 338 332 329 328 328 327 327 327 327 328 329 331
307 308 313 320 325 334 334 341 338 339 340 341 343 342 342 346 346 345 342 339 336 335 335 338 339 336 332 331 330 325 331 333 329 329 329 325 320 319 321 323 323 321 323
309 309 311 321 322 325 327 338 339 339 337 338 339 343 341 341 345 345 342 339 335 334 337 340 338 335 330 326 324 320 320 325 318 325 321 319 316 317 317 318 318 316 316
308 310 315 323 322 325 332 336 337 338 338 337 333 333 338 340 339 343 342 339 340 338 339 339 339 334 323 324 321 319 311 314 311 315 310 311 310 312 314 314 314 314 313
310 311 318 322 322 324 325 326 331 331 330 334 338 339 341 345 342 344 341 340 341 340 339 339 339 334 325 320 321 320 315 312 308 305 309 308 311 311 309 310 310 311 310
310 318 318 318 317 318 319 325 324 325 331 331 334 335 337 341 345 345 342 340 339 339 338 338 330 329 323 322 317 312 312 308 309 307 303 303 304 307 307 307 307 308 309
309 311 316 316 315 316 321 324 323 322 325 331 330 332 333 338 342 342 343 338 337 337 331 325 324 323 316 313 312 310 309 306 305 303 301 300 300 303 305 305 306 306 306
Wind_Speed
7 6 11 15 15 17 16 16 17 17 17 17 17 18 17 16 15 15 14 14 14 14 14 12 11 10 10 9 9 7 6 6 6 6 6 6 5 6 5 10 11 8 10
14 9 12 13 16 18 18 17 17 17 17 17 17 16 16 15 15 15 13 12 12 12 13 12 11 10 9 8 7 6 4 3 3 3 2 2 4 5 6 6 7 7 9
14 11 11 13 14 17 17 15 15 16 17 17 17 16 15 14 14 13 12 12 11 12 11 10 9 9 8 7 6 5 3 3 3 3 3 2 3 7 7 8 7 8 8
14 11 10 14 14 14 16 18 17 18 17 17 17 17 16 15 13 13 12 11 11 11 10 9 8 7 6 6 4 3 1 2 3 3 3 3 4 10 12 9 9 8 8
13 11 11 16 15 15 15 14 16 16 18 18 18 17 17 15 14 13 12 10 10 10 9 9 8 7 6 4 3 2 2 4 5 4 1 4 5 5 13 11 9 8 7
13 12 14 16 15 15 15 15 15 16 16 17 17 17 16 15 13 12 12 10 10 10 9 8 7 6 5 4 4 4 4 5 6 4 4 4 5 7 11 11 7 6 6
9 9 12 17 16 15 15 15 15 16 16 16 16 16 16 15 13 11 12 10 9 9 9 8 7 6 5 5 5 6 6 6 4 5 5 6 6 7 10 6 6 6 6
12 9 8 13 16 16 15 14 14 14 15 16 16 15 14 14 13 12 12 12 10 9 9 8 7 6 6 7 8 8 5 6 3 4 5 5 3 9 6 3 5 5 2
10 10 8 7 10 14 15 14 13 13 14 15 15 16 16 15 14 12 12 12 12 10 9 8 8 8 9 10 8 8 6 7 3 3 5 1 6 7 5 3 4 7 9
8 8 7 7 8 7 8 14 14 13 12 13 14 14 14 15 14 13 11 11 12 11 10 10 10 10 10 11 9 9 6 8 3 3 3 2 7 10 8 9 10 11 11
6 6 7 6 5 7 6 9 12 15 13 12 12 14 11 6 8 11 11 12 13 12 11 11 11 11 10 11 10 12 8 3 3 3 3 8 10 10 9 10 11 11 11
6 8 7 8 8 9 8 7 7 8 7 6 6 8 6 6 7 9 11 14 14 13 13 12 12 11 9 4 4 10 3 5 3 3 3 10 10 10 10 10 11 11 11
7 6 8 7 6 8 6 7 5 4 5 5 8 8 5 5 5 5 3 6 5 11 4 6 6 4 6 5 5 4 3 4 3 3 5 9 9 11 10 10 12 12 10
9 7 8 9 8 7 4 6 6 5 5 6 8 8 5 3 4 4 4 5 5 4 5 5 4 5 6 6 6 5 4 5 4 3 6 11 10 11 11 11 12 10 8
6 7 9 11 10 7 8 5 6 7 6 8 7 8 6 6 5 5 5 5 6 4 4 5 5 5 6 6 5 5 3 5 7 4 3 12 10 12 13 11 11 9 7
7 8 8 12 12 9 9 10 7 7 8 6 6 8 10 7 6 6 6 6 6 5 6 6 4 4 7 4 6 6 6 6 6 6 4 6 12 11 12 11 10 8 7
6 8 7 8 7 9 8 8 8 8 7 7 8 10 12 10 9 7 7 7 7 5 6 4 5 5 5 3 6 4 5 8 8 6 5 4 6 11 10 11 10 9 9
7 8 9 7 7 7 7 6 6 7 7 8 8 8 11 11 11 8 7 7 7 4 5 4 5 4 4 4 2 1 1 2 6 6 7 5 4 4 8 11 10 9 8
10 9 8 8 9 9 7 5 6 6 4 4 5 5 8 11 12 9 7 5 5 4 4 4 4 2 2 2 3 2 2 3 4 4 6 5 6 5 4 9 9 9 7
10 9 9 8 8 7 4 2 2 3 3 3 3 1 6 5 8 9 6 7 6 4 5 4 3 1 2 3 2 2 1 1 2 3 3 3 5 5 5 5 4 4 6
7 8 9 9 9 4 2 3 2 4 2 3 5 5 4 4 6 8 9 5 4 5 6 5 3 4 1 1 3 2 3 3 4 2 1 2 4 2 2 4 1 1 2
11 11 9 9 9 7 3 3 3 3 2 2 2 6 6 8 8 6 6 9 6 4 6 6 5 3 2 1 4 2 1 2 4 4 4 4 5 3 5 5 6 6 5
10 10 11 11 10 7 7 3 1 2 1 2 2 3 8 9 16 6 6 7 6 6 5 4 5 6 4 1 2 5 2 3 2 3 4 5 6 4 5 8 9 7 5
12 9 10 9 9 8 9 5 6 5 4 4 4 4 6 7 7 4 10 8 6 4 5 5 4 3 5 5 2 3 3 4 4 1 3 4 6 7 5 5 6 6 5
6 8 9 9 9 9 8 8 5 4 5 2 2 4 5 8 8 7 7 5 9 5 4 6 4 5 2 4 3 3 3 4 4 3 2 2 3 4 3 5 5 5 6
6 6 1 7 9 8 7 8 10 10 4 2 2 3 3 4 7 10 12 12 9 5 5 5 3 3 5 5 3 3 3 3 2 4 3 2 3 2 5 5 5 4 3
Wind_Direction
160 156 163 147 141 130 126 123 121 116 115 112 111 109 110 111 111 110 111 115 118 122 128 130 124 116 109 101 97 97 102 107 119 130 129 129 138 134 127 144 129 135 141
143 153 167 155 148 138 136 137 131 124 120 117 113 109 109 111 111 111 112 112 115 120 125 127 122 114 107 104 100 97 92 91 83 71 78 130 167 153 149 148 151 153 154
143 149 161 159 155 141 137 134 128 126 124 122 120 118 115 114 114 116 118 119 121 125 125 123 117 110 105 103 98 88 64 33 27 9 310 238 209 199 194 179 178 173 173
146 147 156 160 153 144 143 143 142 138 135 130 128 126 124 123 124 124 123 127 130 132 130 130 121 119 118 108 103 93 45 331 326 318 301 300 275 213 207 200 197 203 198
145 148 158 155 151 146 148 146 143 142 139 139 138 139 136 136 136 135 134 136 138 137 140 139 136 139 133 134 160 170 245 274 293 306 306 263 277 248 192 206 208 219 228
151 153 154 151 148 147 153 154 149 146 146 144 143 143 142 143 145 151 145 143 145 147 151 147 148 156 159 178 205 232 257 280 309 329 321 310 290 222 191 205 221 224 242
143 150 153 152 149 150 158 161 158 152 150 149 149 148 148 149 153 157 149 148 149 156 164 164 165 175 194 211 233 244 255 286 313 317 322 302 275 227 186 206 239 253 264
138 141 149 156 153 154 159 163 162 157 154 153 151 151 153 156 161 165 163 157 160 169 178 179 182 193 215 231 239 252 266 285 328 312 315 317 322 143 159 215 262 268 304
133 137 143 152 158 154 158 162 162 161 161 159 160 159 160 165 170 177 172 171 172 177 187 194 198 205 222 238 248 258 268 284 285 296 315 48 98 113 125 115 67 70 65
136 140 143 150 151 151 163 163 162 163 167 164 166 166 166 170 175 180 185 187 181 188 197 206 215 215 229 245 250 259 263 271 271 272 262 151 129 113 109 96 89 74 71
139 144 142 150 152 146 150 172 165 167 171 173 174 171 166 175 180 187 187 199 190 196 208 217 227 227 236 255 262 262 256 230 227 227 186 145 127 120 116 98 84 82 76
161 170 169 167 170 164 168 168 168 171 167 175 183 182 179 181 187 188 196 199 198 205 213 223 235 243 247 252 262 268 161 201 207 162 138 145 128 127 112 105 101 95 80
202 166 172 169 179 175 169 165 171 170 172 175 190 190 183 187 199 201 199 210 207 216 214 228 244 242 241 251 262 276 175 183 159 151 153 143 139 135 131 126 110 96 91
168 192 179 170 175 190 154 172 176 180 181 188 196 190 182 193 208 208 201 207 207 221 214 222 230 243 248 251 259 275 266 180 156 152 165 159 159 145 137 125 110 113 115
183 190 189 179 178 176 172 184 181 189 192 198 190 191 192 199 210 209 215 205 212 205 216 229 230 235 251 244 256 239 230 145 152 156 150 172 162 154 140 133 135 140 136
223 201 190 191 183 164 176 186 194 194 194 193 201 199 198 202 205 208 217 218 221 206 222 226 221 226 251 252 250 226 176 163 158 154 166 172 167 158 148 153 154 153 152
236 214 220 209 177 176 184 183 186 197 193 196 207 205 199 199 205 206 216 219 226 213 220 220 228 235 241 230 242 177 174 172 176 164 166 171 167 161 163 170 171 167 168
241 192 199 200 208 194 183 193 196 196 199 205 210 207 206 199 204 211 215 220 225 210 209 210 213 211 210 209 268 244 45 111 140 162 166 160 163 172 180 190 183 185 183
206 212 211 207 195 201 195 193 204 205 206 221 216 215 219 210 203 206 213 217 214 202 207 194 215 188 199 180 154 86 126 151 165 151 160 158 178 178 190 208 196 197 195
215 196 191 194 207 208 177 158 264 184 205 212 205 286 237 229 218 198 190 206 191 186 209 210 183 128 172 148 102 95 84 131 115 155 171 125 206 177 198 199 203 206 198
221 193 202 173 212 148 167 145 216 223 192 207 211 193 284 266 222 229 209 186 185 195 196 215 160 156 50 162 106 23 27 70 66 48 62 71 91 189 181 197 155 125 30
212 201 194 197 179 189 169 169 168 174 185 186 201 231 185 249 245 229 240 200 182 196 202 196 172 130 205 206 128 101 110 359 31 19 54 58 24 14 77 81 76 77 85
207 190 186 193 189 181 172 146 192 77 77 177 178 197 220 234 254 243 271 272 190 186 205 187 179 158 161 353 102 143 120 190 116 342 25 47 22 47 66 72 79 91 87
213 189 178 182 177 189 177 170 186 188 212 225 192 198 208 211 210 176 112 312 265 191 184 180 181 173 145 149 81 50 70 135 148 146 347 28 46 55 67 75 71 74 55
174 179 176 176 183 196 183 188 175 201 220 209 185 230 219 213 204 189 155 153 295 252 200 147 149 189 120 136 129 153 66 54 77 124 153 337 49 36 64 70 66 55 32
54 12 292 178 201 198 188 199 195 208 221 216 240 243 237 195 171 181 176 190 205 249 153 115 149 169 112 99 119 128 139 146 167 123 109 240 150 47 43 58 64 51 21